sat.trackr.live / text

‹ back to catalog

STARLINK-5309

NORAD 55310 · 2023-010AT

PAYLOAD ACTIVE UNKNOWN

§ Identity

Operator
Country
US
Launch date
2023-01-19
Launch site
AFWTR
Launch vehicle
Mass (kg)
RCS (m²)

Purposes: comms

External: N2YO · Heavens-Above · Gunter

§ Orbital elements

Epoch: 2026-05-25T03:40:06.609792Z

Period
96.11 min
Inclination
69.9985°
Eccentricity
0.0003694
Mean motion
14.98329301 rev/d
Perigee alt
569.5 km
Apogee alt
574.6 km
Semi-major
6,950.2 km
B*
1.6835e-5
RAAN
171.7469°
Arg perigee
267.5381°
Mean anomaly
92.5355°
Rev number
18,522

§ Raw data

STARLINK-53091 55310U 23010AT  26145.15285428  .00000108  00000+0  16835-4 0  99982 55310  69.9985 171.7469 0003694 267.5381  92.5355 14.98329301185228

JSON: /api/v1/satellites/55310 · /tle

For live sub-satellite position, see the globe view (requires WebGL).

§ Visibility from observer

Set your observer location to see the next 7 days of passes ≥ 10°. The values pass through the URL so the page stays shareable.

No JS? Fill the form by hand. The geolocation button needs JavaScript.